EN

Hourly Weather Acatzingo de Hidalgo

Today, 1 December, Tuesday

Time Temperature Precipitation Wind Pressure Humidity
00:00 +10°C° 0 mm 2 mps 591 mmHg 84%
01:00 +10°C° 0 mm 2 mps 590 mmHg 84%
02:00 +9°C° 0 mm 2 mps 590 mmHg 84%
03:00 +9°C° 0 mm 2 mps 590 mmHg 86%
04:00 +8°C° 0 mm 2 mps 590 mmHg 88%
05:00 +8°C° 0 mm 2 mps 589 mmHg 90%
06:00 +9°C° 0 mm 2 mps 590 mmHg 83%
07:00 +12°C° 0 mm 2 mps 591 mmHg 76%
08:00 +13°C° 0 mm 2 mps 592 mmHg 70%
09:00 +14°C° 0 mm 3 mps 592 mmHg 64%
10:00 +17°C° 0 mm 3 mps 592 mmHg 57%
11:00 +18°C° 0 mm 4 mps 593 mmHg 51%
12:00 +19°C° 0 mm 4 mps 592 mmHg 50%
13:00 +19°C° 0 mm 5 mps 591 mmHg 50%
14:00 +20°C° 0 mm 6 mps 591 mmHg 49%
15:00 +17°C° 0 mm 5 mps 590 mmHg 55%
16:00 +17°C° 0 mm 4 mps 590 mmHg 61%
17:00 +14°C° 0 mm 3 mps 589 mmHg 67%
18:00 +14°C° 0 mm 2 mps 589 mmHg 71%
19:00 +14°C° 0 mm 2 mps 589 mmHg 76%
20:00 +13°C° 0 mm 2 mps 589 mmHg 81%
21:00 +12°C° 0 mm 1 mps 589 mmHg 82%
22:00 +12°C° 0 mm 1 mps 589 mmHg 84%
23:00 +12°C° 0 mm 1 mps 588 mmHg 86%

Tomorrow, 2 December, Wednesday

Time Temperature Precipitation Wind Pressure Humidity
00:00 +11°C° 0 mm 1 mps 588 mmHg 87%
01:00 +10°C° 0 mm 0 mps 587 mmHg 88%
02:00 +10°C° 0 mm 0 mps 587 mmHg 89%
03:00 +9°C° 0 mm 0 mps 587 mmHg 90%
04:00 +9°C° 0 mm 0 mps 587 mmHg 90%
05:00 +9°C° 0 mm 0 mps 587 mmHg 90%
06:00 +12°C° 0 mm 1 mps 588 mmHg 84%
07:00 +13°C° 0 mm 1 mps 589 mmHg 78%
08:00 +15°C° 0 mm 1 mps 591 mmHg 72%
09:00 +16°C° 0 mm 2 mps 591 mmHg 65%
10:00 +18°C° 0 mm 3 mps 591 mmHg 57%
11:00 +19°C° 0 mm 3 mps 592 mmHg 50%
12:00 +20°C° 0 mm 4 mps 591 mmHg 48%
13:00 +20°C° 0 mm 4 mps 591 mmHg 46%
14:00 +20°C° 0 mm 5 mps 590 mmHg 44%
15:00 +19°C° 0 mm 4 mps 590 mmHg 47%
16:00 +18°C° 0 mm 3 mps 590 mmHg 51%
17:00 +16°C° 0 mm 3 mps 589 mmHg 54%
18:00 +15°C° 0 mm 2 mps 589 mmHg 58%
19:00 +15°C° 0 mm 1 mps 590 mmHg 62%
20:00 +13°C° 0 mm 0 mps 590 mmHg 66%
21:00 +13°C° 0 mm 1 mps 590 mmHg 68%
22:00 +13°C° 0 mm 1 mps 590 mmHg 70%
23:00 +13°C° 0 mm 1 mps 589 mmHg 72%

Day after tomorrow, 3 December, Thursday

Time Temperature Precipitation Wind Pressure Humidity
00:00 +12°C° 0 mm 1 mps 589 mmHg 74%
01:00 +12°C° 0 mm 1 mps 589 mmHg 76%
02:00 +11°C° 0 mm 1 mps 588 mmHg 78%
03:00 +11°C° 0 mm 1 mps 588 mmHg 79%
04:00 +11°C° 0 mm 1 mps 588 mmHg 80%
05:00 +10°C° 0 mm 1 mps 588 mmHg 81%
06:00 +12°C° 0 mm 1 mps 590 mmHg 74%
07:00 +14°C° 0 mm 1 mps 591 mmHg 67%
08:00 +15°C° 0 mm 2 mps 592 mmHg 60%
09:00 +17°C° 0 mm 2 mps 592 mmHg 54%
10:00 +18°C° 0 mm 3 mps 592 mmHg 48%
11:00 +20°C° 0 mm 4 mps 593 mmHg 42%
12:00 +20°C° 0 mm 4 mps 592 mmHg 42%
13:00 +20°C° 0 mm 5 mps 592 mmHg 43%
14:00 +20°C° 0 mm 5 mps 591 mmHg 43%
15:00 +19°C° 0 mm 5 mps 591 mmHg 50%
16:00 +18°C° 0 mm 4 mps 591 mmHg 56%
17:00 +15°C° 0 mm 4 mps 591 mmHg 63%
18:00 +14°C° 0 mm 3 mps 590 mmHg 69%
19:00 +13°C° 0 mm 3 mps 590 mmHg 76%
20:00 +13°C° 0 mm 2 mps 590 mmHg 82%
21:00 +12°C° 0 mm 2 mps 590 mmHg 84%
22:00 +12°C° 0 mm 2 mps 590 mmHg 87%
23:00 +10°C° 0 mm 2 mps 590 mmHg 89%

4 December, Friday

Time Temperature Precipitation Wind Pressure Humidity
00:00 +11°C° 0 mm 1 mps 589 mmHg 90%
01:00 +11°C° 0 mm 1 mps 589 mmHg 91%
02:00 +10°C° 0 mm 1 mps 588 mmHg 92%
03:00 +10°C° 0 mm 1 mps 588 mmHg 91%
04:00 +10°C° 0 mm 1 mps 588 mmHg 91%
05:00 +10°C° 0 mm 1 mps 588 mmHg 91%
06:00 +11°C° 0 mm 1 mps 589 mmHg 84%
07:00 +13°C° 0 mm 1 mps 591 mmHg 77%
08:00 +15°C° 0 mm 2 mps 592 mmHg 70%
09:00 +16°C° 0 mm 2 mps 592 mmHg 61%
10:00 +18°C° 0 mm 3 mps 592 mmHg 53%
11:00 +20°C° 0 mm 3 mps 593 mmHg 44%
12:00 +20°C° 0 mm 4 mps 592 mmHg 42%
13:00 +21°C° 0 mm 4 mps 592 mmHg 40%
14:00 +21°C° 0 mm 5 mps 591 mmHg 38%
15:00 +20°C° 0 mm 4 mps 591 mmHg 44%
16:00 +18°C° 0 mm 4 mps 591 mmHg 50%
17:00 +16°C° 0 mm 3 mps 590 mmHg 57%
18:00 +14°C° 0 mm 3 mps 590 mmHg 65%
19:00 +14°C° 0 mm 2 mps 590 mmHg 73%
20:00 +13°C° 0 mm 2 mps 591 mmHg 81%
21:00 +12°C° 0 mm 2 mps 590 mmHg 83%
22:00 +12°C° 0 mm 2 mps 590 mmHg 85%
23:00 +10°C° 0 mm 2 mps 590 mmHg 88%

5 December, Saturday

Time Temperature Precipitation Wind Pressure Humidity
00:00 +10°C° 0 mm 2 mps 590 mmHg 88%
01:00 +10°C° 0 mm 2 mps 589 mmHg 89%
02:00 +9°C° 0 mm 2 mps 589 mmHg 90%
03:00 +9°C° 0 mm 2 mps 589 mmHg 90%
04:00 +10°C° 0 mm 1 mps 589 mmHg 90%
05:00 +10°C° 0 mm 1 mps 589 mmHg 91%
06:00 +11°C° 0 mm 1 mps 590 mmHg 83%
07:00 +13°C° 0 mm 1 mps 591 mmHg 76%
08:00 +14°C° 0 mm 1 mps 592 mmHg 69%
09:00 +16°C° 0 mm 2 mps 593 mmHg 61%
10:00 +18°C° 0 mm 2 mps 593 mmHg 53%
11:00 +19°C° 0 mm 2 mps 594 mmHg 46%
12:00 +20°C° 0 mm 3 mps 593 mmHg 44%
13:00 +20°C° 0 mm 4 mps 593 mmHg 42%
14:00 +21°C° 0 mm 4 mps 593 mmHg 40%
15:00 +19°C° 0 mm 4 mps 592 mmHg 49%
16:00 +17°C° 0 mm 4 mps 591 mmHg 57%
17:00 +14°C° 0 mm 3 mps 591 mmHg 65%
18:00 +13°C° 0 mm 3 mps 591 mmHg 71%
19:00 +13°C° 0 mm 2 mps 591 mmHg 76%
20:00 +12°C° 0 mm 2 mps 591 mmHg 82%
21:00 +12°C° 0 mm 2 mps 591 mmHg 83%
22:00 +10°C° 0 mm 2 mps 591 mmHg 84%
23:00 +10°C° 0 mm 2 mps 590 mmHg 85%

6 December, Sunday

Time Temperature Precipitation Wind Pressure Humidity
00:00 +10°C° 0 mm 2 mps 590 mmHg 86%
01:00 +9°C° 0 mm 2 mps 590 mmHg 87%
02:00 +9°C° 0 mm 2 mps 589 mmHg 88%
03:00 +9°C° 0 mm 2 mps 589 mmHg 88%
04:00 +10°C° 0 mm 1 mps 589 mmHg 88%
05:00 +10°C° 0 mm 1 mps 589 mmHg 88%
06:00 +11°C° 0 mm 1 mps 590 mmHg 82%
07:00 +12°C° 0 mm 1 mps 591 mmHg 76%
08:00 +14°C° 0 mm 1 mps 592 mmHg 69%
09:00 +15°C° 0 mm 2 mps 593 mmHg 63%
10:00 +17°C° 0 mm 2 mps 593 mmHg 56%
11:00 +19°C° 0 mm 2 mps 594 mmHg 49%
12:00 +19°C° 0 mm 3 mps 593 mmHg 49%
13:00 +19°C° 0 mm 4 mps 593 mmHg 49%
14:00 +20°C° 0 mm 4 mps 592 mmHg 49%
15:00 +18°C° 0 mm 4 mps 592 mmHg 57%
16:00 +16°C° 0 mm 3 mps 591 mmHg 64%
17:00 +13°C° 0 mm 3 mps 591 mmHg 72%
18:00 +12°C° 0 mm 3 mps 591 mmHg 75%
19:00 +13°C° 0 mm 2 mps 591 mmHg 78%
20:00 +12°C° 0 mm 2 mps 591 mmHg 81%
21:00 +10°C° 0 mm 2 mps 591 mmHg 83%
22:00 +11°C° 0 mm 1 mps 591 mmHg 84%
23:00 +11°C° 0 mm 1 mps 590 mmHg 86%
Show more

We Need Your Consent

Meteoprog and our Service Providers may store and access personal data such as cookies, device identifiers or other similar technologies on your device and process such data to personalise content and ads, as well as provide social media features and to analyse the traffic.

  • Store and/or access information on your device

    Cookies, device identifiers or other information can be stored or accessed on your device for the purposes indicated above.

  • Personalised ads and content, ad and content measurement, audience insights, and products development

    Ads and content can be personalised based on a profile. More data can be added to better personalise ads and content. Ad and content performance can be measured. Insights about the audience who saw the ads and content can be derived. Such data can be used to develop or improve user’s experience, systems and software.

By clicking ‘I Agree’ you will allow the use of indicated cookies, device identifiers, web beacons or other similar technologies. Your settings can be changed in the browser on your device.

For certain purposes, legitimate interests may be relied on, rather than consent. You can read more about this in our Privacy and Cookie Policy.